Location: Drocourt
(49.0571°N, 1.7669°E)
Time: 16:37:23
(UTC+00:00)

SR - Pass Details

Date: 28 April 2024
Orbit: 579 x 860 km, 66.7° (Epoch: 22 May)

Event Time Altitude Azimuth Distance (km) Brightness Sun altitude
Exits shadow 22:52:49 27° 83° (E) 1,436 ? -25.1°
Drops below altitude 10° 22:55:46 10° 53° (NE) 2,227 ? -25.3°
Sets 22:58:15 0° 43° (NE) 3,103 ? -25.4°
